Skip Page Navigation
NASA JPL Caltech
NASA Logo - Jet Propulsion Laboratory + View the NASA Portal
+ Center for Near-Earth Object Studies
JPL Home Earth Solar System Stars & Galaxies Technology
JPL Solar System Dynamics
BODIES ORBITS EPHEMERIDES TOOLS PHYSICAL DATA DISCOVERY FAQ SITE MAP
JPL Small-Body Database Browser
Search: [ help ]  
413748 (2006 CS14)
Classification: Main-belt Asteroid          SPK-ID: 2413748
Ephemeris | Orbit Diagram | Orbital Elements | Mission Design | Physical Parameters | Discovery Circumstances | Close-Approach Data ]

[ show orbit diagram ]
Orbital Elements at Epoch 2459000.5 (2020-May-31.0) TDB
Reference: JPL 16 (heliocentric ecliptic J2000)
 Element Value Uncertainty (1-sigma)   Units 
e .2387204242607577 4.9273e-08  
a 2.787531408023042 2.3164e-08 au
q 2.122090727659594 1.3534e-07 au
i 7.895886401814792 5.9731e-06 deg
node 141.879328011523 3.6859e-05 deg
peri 292.9173313753818 3.9521e-05 deg
M 66.45269070871805 1.266e-05 deg
tp 2458686.710685296766
(2019-Jul-22.21068530)
5.805e-05 TDB
period 1699.91842449721
4.65
2.1189e-05
5.801e-08
d
yr
n .2117748680243161 2.6398e-09 deg/d
Q 3.452972088386491 2.8694e-08 au
  Orbit Determination Parameters
   # obs. used (total)      216  
   data-arc span      5641 days (15.44 yr)  
   first obs. used      2004-08-23  
   last obs. used      2020-02-02  
   planetary ephem.      DE431  
   SB-pert. ephem.      SB431-N16  
   condition code      0  
   norm. resid. RMS      .51762  
   source      ORB  
   producer      Otto Matic  
   solution date      2020-Feb-26 07:01:46  

Additional Information
 Earth MOID = 1.1519 au 
 Jupiter MOID = 1.88492 au 
 T_jup = 3.275 
[ show covariance matrix ]

Ephemeris | Orbit Diagram | Orbital Elements | Mission Design | Physical Parameters | Discovery Circumstances | Close-Approach Data ]

Physical Parameter Table
Parameter Symbol Value Units Sigma Reference Notes
absolute magnitude H 16.5   n/a MPO455947  
diameter diameter 3.041 km 0.180 urn:nasa:pds:neowise_diameters_albedos::2.0[mainbelt] (http://adsabs.harvard.edu/abs/2011ApJ...741...68M)  
geometric albedo albedo 0.048   0.008 urn:nasa:pds:neowise_diameters_albedos::2.0[mainbelt] (http://adsabs.harvard.edu/abs/2011ApJ...741...68M)  

413748 (2006 CS14)          Discovered 2006-Feb-01 by Spacewatch at Kitt Peak
Reference: Last Updated: 2014-11-10

[ hide close-approach data ]
Close-Approach Data   ...sorted by Date/Time (TDB)
Date/Time (TDB) Time Uncertainty
(days_HH:MM)
Body Nominal Distance (au) Minimum Distance (au) Maximum Distance (au) V-relative (km/s) V-infinity (km/s) JD (TDB) Time Uncertainty (minutes) Semi-major axis (km) Semi-minor axis (km) range-LOV angle (deg) N-sigma BP Orbit Ref. Reference Modified
1901-Feb-19 01:00 00:04 Jupiter 1.89090560616416 1.8909051049772 1.89090610735069 1.49570207251129 1.15811650505001 2415434.541517044 4.09268401087104 375.939502496629 181.241681282594 -14.4127975788516 687359.069146439 T 16 CATAB v2.0f-lin.ifort 2020-Feb-26 07:01:48 2020-Feb-26 07:01
1924-Jan-01 20:08 00:03 Jupiter 1.99684550920949 1.99684423280243 1.99684678562494 1.35975448255093 1.00028579124983 2423786.338567907 3.36156520975212 421.532617029028 159.955930152195 -60.461584438384 1412212.17791216 T 16 CATAB v2.0f-lin.ifort 2020-Feb-26 07:01:48 2020-Feb-26 07:01
2008-Jun-08 00:38 < 00:01 Jupiter 1.89810321212555 1.8981026571647 1.89810376708629 1.98866304903225 1.74993916739299 2454625.526156948 0.463483243987197 117.265373809818 44.0943521064444 78.6911895553117 1365654.15025556 T 16 CATAB v2.0f-lin.ifort 2020-Feb-26 07:01:48 2020-Feb-26 07:01
2031-Apr-27 00:31 < 00:01 Jupiter 1.91106074936446 1.91106015712053 1.91106134160773 1.37162479072233 0.997452903668171 2462983.521226539 0.646135027092513 253.658942231794 180.623951625565 42.5565119183423 1387818.57256108 T 16 CATAB v2.0f-lin.ifort 2020-Feb-26 07:01:48 2020-Feb-26 07:01
2115-Sep-26 09:35 00:03 Jupiter 1.9595216143057 1.9595204230093 1.95952280561312 2.58368595816233 2.41058362927632 2493815.899008654 3.45704117002529 280.483719606425 20.3182144179203 87.9234981379431 1452668.6295675 T 16 CATAB v2.0f-lin.ifort 2020-Feb-26 07:01:48 2020-Feb-26 07:01
2138-Aug-16 00:57 00:04 Jupiter 1.87339009140832 1.87338954550357 1.87339063731403 1.73076352795435 1.44612422918358 2502175.539921821 4.26749065534797 278.961804909623 133.944592997698 -53.8400122255865 911914.970229592 T 16 CATAB v2.0f-lin.ifort 2020-Feb-26 07:01:48 2020-Feb-26 07:01
2161-Jul-01 20:27 00:05 Jupiter 1.96562036209942 1.9656182533346 1.96562247089866 1.3842660005335 1.02681790816137 2510531.351863069 5.30325926619944 565.596328796527 177.052363693316 -89.3991441382526 1374643.65847281 T 16 CATAB v2.0f-lin.ifort 2020-Feb-26 07:01:48 2020-Feb-26 07:01

Alternate Designations
 2006 CS14 = 2009 TF15 
Ephemeris | Orbit Diagram | Orbital Elements | Mission Design | Physical Parameters | Discovery Circumstances | Close-Approach Data ]
ABOUT SSD CREDITS/AWARDS PRIVACY/COPYRIGHT GLOSSARY LINKS
FirstGov 2020-Sep-18 23:16 UT
(server date/time)  
NASA Home Page
Site Manager:   Ryan S. Park
Webmaster  Alan B. Chamberlin